Regional Weather Roundup
Issued by NWS

Home | Current Version | Previous Version | Graphics & Text | Print | Product List | Glossary Off
Versions: 1 2 3 4 5 6 7 8 9 10 11 12 13 14 15 16 17 18 19 20 21 22 23 24 25 26 27 28 29 30 31 32 33 34 35 36 37 38 39 40 41 42 43 44 45 46 47 48 49 50

000
ASUS43 KTOP 181408
RWRKS

WEATHER ROUNDUP FOR KANSAS
NATIONAL WEATHER SERVICE GOODLAND KS
800 AM CST SAT NOV 18 2017

NOTE:  "FAIR" INDICATES FEW OR NO CLOUDS BELOW 12,000 FEET WITH NO
SIGNIFICANT WEATHER AND/OR OBSTRUCTIONS TO VISIBILITY.

KSZ001>006-013>018-027>032-041>047-181500-
NORTHWEST KANSAS

CITY           SKY/WX    TMP DP  RH WIND       PRES   REMARKS
GOODLAND       CLEAR     33  26  75 NW20G30   30.14R WCI  21
HAYS           LGT RAIN  39  36  89 N26       30.03R WCI  28
HILL CITY      CLOUDY    40  37  89 NW17G26   30.06R WCI  31
RUSSELL        LGT RAIN  39  38  96 N24G33    30.00R WCI  28
$$

KSZ061>065-074>080-084>089-181500-
SOUTHWEST KANSAS

CITY           SKY/WX    TMP DP  RH WIND       PRES   REMARKS
DODGE CITY     CLOUDY    41  37  86 N22G39    30.04R
ELKHART        CLEAR     41  31  68 N23G31    30.15R
GARDEN CITY    CLOUDY    40  35  83 N22G32    30.08R WCI  30
GREAT BEND     LGT RAIN  40  37  89 N28       30.00R WCI  29
LIBERAL        CLOUDY    43  33  68 N26G41    30.10R
PRATT          CLOUDY    41  37  84 N31G37    29.97R
$$

KSZ066>073-081>083-090>101-181500-
SOUTHEAST KANSAS

CITY           SKY/WX    TMP DP  RH WIND       PRES   REMARKS
CHANUTE        LGT RAIN  48  45  89 NW22G33   29.72R
COFFEYVILLE    CLOUDY    51  46  83 NW28G37   29.72R
HUTCHINSON     LGT RAIN  42  39  89 N21G35    29.91R
MEDICINE LODGE   N/A     45  38  76 N29G46    29.93R
NEWTON         LGT RAIN  42  39  89 NW26G35   29.88R
PARSONS        LGT RAIN  50  46  86 NW25G36   29.73R
WICHITA INTL   LGT RAIN  45  42  89 NW24G39   29.88R
WICHITA JABRA  LGT RAIN  44  42  93 NW26G35   29.87R
WICHITA MCCONL LGT RAIN  45  39  81 N23G37    29.87R
WINFIELD       CLOUDY    49  42  77 N26G36    29.86R
$$

KSZ007>012-019>026-033>040-048>060-102>105-181500-
NORTHEAST KANSAS

CITY           SKY/WX    TMP DP  RH WIND       PRES   REMARKS
CONCORDIA      CLOUDY    41  34  76 NW21G29   29.92R
EMPORIA        LGT RAIN  44  39  82 NW18G35   29.80R
LAWRENCE       CLOUDY    45  40  82 NW22G31   29.74R
MANHATTAN      CLOUDY    44  38  79 N9G23     29.86R
MARYSVILLE     CLOUDY    41  36  81 N20G25    29.85R
OLATHE IND     LGT RAIN  44  41  89 N28G43    29.68R
OLATHE EXE     LGT RAIN  44  40  85 N24G37    29.66R
SALINA         CLOUDY    44  39  82 NW23G30   29.93R
TOPEKA BILLARD LGT RAIN  44  41  89 NW21G28   29.77R
TOPEKA FORBES  LGT RAIN  45  41  86 N25G35    29.76R
$$



USA.gov is the U.S. government's official web portal to all federal, state and local government web resources and services.